Regional Weather Roundup
Issued by NWS

Home | Current Version | Previous Version | Text Only | Print | Product List | Glossary On
Versions: 1 2 3 4 5 6 7 8 9 10 11 12 13 14 15 16 17 18 19 20 21 22 23 24 25 26 27 28 29 30 31 32 33 34 35 36 37 38 39 40 41 42 43 44 45 46 47 48 49 50
000
ASUS45 KREV 252010
RWRNV
NEVADA REGIONAL WEATHER ROUNDUP
NATIONAL WEATHER SERVICE RENO NV
100 PM PDT THU MAY 25 2017

NOTE: "FAIR" INDICATES FEW OR NO CLOUDS BELOW 12,000 FEET WITH NO
SIGNIFICANT WEATHER AND/OR OBSTRUCTIONS TO VISIBILITY.

NVZ001-003-004-252100-
WESTERN NEVADA

CITY           SKY/WX    TMP DP  RH WIND       PRES   REMARKS
RENO           MOSUNNY   78  20  11 NW15G21   29.72F
CARSON CITY    FAIR      72  21  15 S10G17    29.76F
MINDEN         FAIR      70  32  24 SE8       29.76S
FALLON         MOSUNNY   73  21  14 S6        29.72F
LOVELOCK       SUNNY     71  31  22 SE6       29.71F
HAWTHORNE      SUNNY     73  25  16 NW9       29.72F
$$

NVZ002-CAZ072-073-252100-
NORTHERN AND CENTRAL SIERRA

CITY           SKY/WX    TMP DP  RH WIND       PRES   REMARKS
S. LAKE TAHOE  SUNNY     64  25  22 S15G22    29.83S
TRUCKEE        SUNNY     64  27  24 MISG      29.83F
SQUAW VLY 8000   N/A     45  30  57 SW12        N/A
SUSANVILLE     SUNNY     75  32  20 S10G16    29.72F
MAMMOTH LAKES  FAIR      68  13  11 SW14G40   29.87F
BRIDGEPORT     FAIR      67  24  19 SW12G22   29.83F
$$

NVZ030-031-036-252100-
NORTHERN NEVADA

CITY           SKY/WX    TMP DP  RH WIND       PRES   REMARKS
ELKO           MOSUNNY   66  26  22 W14G22    29.75S
WINNEMUCCA     SUNNY     68  25  19 W14       29.73F
WENDOVER       SUNNY     69  30  23 SE13      29.72F
$$

NVZ035-037-252100-
CENTRAL NEVADA

CITY           SKY/WX    TMP DP  RH WIND       PRES   REMARKS
ELY            MOSUNNY   69  23  17 W13G26    29.79F
EUREKA           N/A     68  25  19 W9G22     29.77F
$$

NVZ013-014-252100-
SOUTH CENTRAL NEVADA

CITY           SKY/WX    TMP DP  RH WIND       PRES   REMARKS
TONOPAH        SUNNY     76  22  13 N9        29.76F
$$

NVZ017-020-022-252100-
SOUTHERN NEVADA

CITY           SKY/WX    TMP DP  RH WIND       PRES   REMARKS
LAS VEGAS      MOSUNNY   94  15   5 SW14G26   29.53F
NELLIS AFB     SUNNY     95  23   7 S21G33    29.49F
HENDERSON      SUNNY     92  24   8 SW25G37   29.58F
MERCURY        MOSUNNY   89  26  10 SW23G29   29.61F
$$



USA.gov is the U.S. government's official web portal to all federal, state and local government web resources and services.